Hourly Weather Kankan

Today, 5 August, Wednesday

Time Temperature Precipitation Wind Pressure Humidity
00:00 +20°C° 0 mm 3 mps 686 mmHg 90%
01:00 +20°C° 0 mm 3 mps 686 mmHg 89%
02:00 +20°C° 0 mm 3 mps 685 mmHg 88%
03:00 +20°C° 0 mm 3 mps 685 mmHg 87%
04:00 +20°C° 0 mm 3 mps 685 mmHg 86%
05:00 +20°C° 0 mm 3 mps 685 mmHg 86%
06:00 +20°C° 0 mm 3 mps 686 mmHg 86%
07:00 +20°C° 0 mm 3 mps 686 mmHg 87%
08:00 +22°C° 0 mm 4 mps 686 mmHg 83%
09:00 +23°C° 0 mm 4 mps 687 mmHg 80%
10:00 +25°C° 0 mm 5 mps 687 mmHg 77%
11:00 +25°C° 0.2 mm 5 mps 687 mmHg 75%
12:00 +26°C° 0.2 mm 5 mps 687 mmHg 72%
13:00 +27°C° 0.2 mm 5 mps 687 mmHg 70%
14:00 +27°C° 0.5 mm 5 mps 686 mmHg 72%
15:00 +26°C° 0.5 mm 4 mps 685 mmHg 75%
16:00 +26°C° 0.5 mm 4 mps 684 mmHg 78%
17:00 +25°C° 0.6 mm 4 mps 684 mmHg 82%
18:00 +24°C° 0.6 mm 3 mps 684 mmHg 87%
19:00 +22°C° 0.6 mm 3 mps 684 mmHg 91%
20:00 +21°C° 0.2 mm 2 mps 685 mmHg 91%
21:00 +21°C° 0.2 mm 2 mps 685 mmHg 91%
22:00 +21°C° 0.2 mm 2 mps 686 mmHg 92%
23:00 +21°C° 0.2 mm 3 mps 685 mmHg 92%

Tomorrow, 6 August, Thursday

Time Temperature Precipitation Wind Pressure Humidity
00:00 +21°C° 0.2 mm 3 mps 685 mmHg 92%
01:00 +21°C° 0.2 mm 4 mps 685 mmHg 93%
02:00 +20°C° 0.3 mm 4 mps 685 mmHg 93%
03:00 +20°C° 0.3 mm 4 mps 684 mmHg 93%
04:00 +20°C° 0.3 mm 4 mps 684 mmHg 93%
05:00 +20°C° 0.1 mm 4 mps 684 mmHg 93%
06:00 +20°C° 0.1 mm 4 mps 684 mmHg 93%
07:00 +21°C° 0.1 mm 4 mps 685 mmHg 93%
08:00 +22°C° 0.1 mm 4 mps 685 mmHg 89%
09:00 +23°C° 0.1 mm 5 mps 686 mmHg 85%
10:00 +25°C° 0.1 mm 5 mps 686 mmHg 81%
11:00 +23°C° 0.8 mm 5 mps 686 mmHg 83%
12:00 +23°C° 0.8 mm 4 mps 686 mmHg 85%
13:00 +22°C° 0.8 mm 4 mps 686 mmHg 87%
14:00 +22°C° 2.8 mm 4 mps 685 mmHg 90%
15:00 +21°C° 2.8 mm 4 mps 684 mmHg 92%
16:00 +21°C° 2.8 mm 4 mps 684 mmHg 95%
17:00 +20°C° 0.8 mm 4 mps 684 mmHg 94%
18:00 +20°C° 0.8 mm 4 mps 684 mmHg 94%
19:00 +20°C° 0.8 mm 4 mps 685 mmHg 93%
20:00 +20°C° 0 mm 4 mps 685 mmHg 93%
21:00 +20°C° 0 mm 3 mps 685 mmHg 93%
22:00 +20°C° 0 mm 3 mps 686 mmHg 93%
23:00 +20°C° 0 mm 3 mps 686 mmHg 93%

Day after tomorrow, 7 August, Friday

Time Temperature Precipitation Wind Pressure Humidity
00:00 +20°C° 0 mm 3 mps 686 mmHg 93%
01:00 +20°C° 0 mm 3 mps 686 mmHg 92%
02:00 +20°C° 0.1 mm 3 mps 685 mmHg 92%
03:00 +20°C° 0.1 mm 3 mps 685 mmHg 92%
04:00 +20°C° 0.1 mm 3 mps 685 mmHg 92%
05:00 +20°C° 0.1 mm 3 mps 685 mmHg 92%
06:00 +20°C° 0.1 mm 3 mps 685 mmHg 92%
07:00 +19°C° 0.1 mm 2 mps 685 mmHg 92%
08:00 +20°C° 0 mm 3 mps 686 mmHg 88%
09:00 +21°C° 0 mm 3 mps 687 mmHg 85%
10:00 +22°C° 0 mm 4 mps 687 mmHg 81%
11:00 +22°C° 0 mm 3 mps 687 mmHg 81%
12:00 +22°C° 0 mm 3 mps 687 mmHg 81%
13:00 +22°C° 0 mm 3 mps 686 mmHg 81%
14:00 +21°C° 0.2 mm 3 mps 686 mmHg 84%
15:00 +21°C° 0.2 mm 3 mps 685 mmHg 86%
16:00 +20°C° 0.2 mm 3 mps 685 mmHg 89%
17:00 +20°C° 0.1 mm 3 mps 685 mmHg 89%
18:00 +20°C° 0.1 mm 3 mps 685 mmHg 90%
19:00 +19°C° 0.1 mm 3 mps 685 mmHg 91%
20:00 +19°C° 0 mm 3 mps 686 mmHg 90%
21:00 +19°C° 0 mm 2 mps 686 mmHg 90%
22:00 +19°C° 0 mm 2 mps 687 mmHg 90%
23:00 +19°C° 0 mm 2 mps 687 mmHg 90%

8 August, Saturday

Time Temperature Precipitation Wind Pressure Humidity
00:00 +19°C° 0 mm 2 mps 687 mmHg 89%
01:00 +20°C° 0 mm 2 mps 687 mmHg 89%
02:00 +20°C° 0 mm 2 mps 686 mmHg 89%
03:00 +20°C° 0 mm 2 mps 686 mmHg 89%
04:00 +21°C° 0 mm 1 mps 686 mmHg 89%
05:00 +20°C° 0 mm 1 mps 686 mmHg 91%
06:00 +20°C° 0 mm 1 mps 686 mmHg 92%
07:00 +20°C° 0 mm 1 mps 687 mmHg 93%
08:00 +22°C° 0 mm 1 mps 687 mmHg 86%
09:00 +24°C° 0 mm 2 mps 688 mmHg 78%
10:00 +26°C° 0 mm 2 mps 689 mmHg 71%
11:00 +27°C° 0 mm 3 mps 688 mmHg 67%
12:00 +28°C° 0 mm 3 mps 688 mmHg 63%
13:00 +29°C° 0 mm 3 mps 688 mmHg 59%
14:00 +29°C° 0 mm 3 mps 687 mmHg 60%
15:00 +28°C° 0 mm 3 mps 687 mmHg 60%
16:00 +28°C° 0 mm 3 mps 686 mmHg 61%
17:00 +26°C° 0 mm 3 mps 686 mmHg 69%
18:00 +25°C° 0 mm 2 mps 686 mmHg 77%
19:00 +23°C° 0 mm 2 mps 686 mmHg 85%
20:00 +21°C° 0 mm 2 mps 686 mmHg 87%
21:00 +21°C° 0 mm 2 mps 686 mmHg 90%
22:00 +20°C° 0 mm 2 mps 687 mmHg 92%
23:00 +19°C° 0 mm 2 mps 687 mmHg 93%

9 August, Sunday

Time Temperature Precipitation Wind Pressure Humidity
00:00 +19°C° 0 mm 2 mps 686 mmHg 94%
01:00 +19°C° 0 mm 2 mps 686 mmHg 95%
02:00 +18°C° 0 mm 2 mps 686 mmHg 95%
03:00 +18°C° 0 mm 2 mps 686 mmHg 95%
04:00 +18°C° 0 mm 2 mps 685 mmHg 95%
05:00 +18°C° 0 mm 2 mps 686 mmHg 94%
06:00 +20°C° 0 mm 1 mps 686 mmHg 93%
07:00 +20°C° 0 mm 1 mps 686 mmHg 93%
08:00 +21°C° 0 mm 2 mps 687 mmHg 84%
09:00 +24°C° 0 mm 3 mps 687 mmHg 76%
10:00 +26°C° 0 mm 3 mps 688 mmHg 68%
11:00 +27°C° 0 mm 3 mps 688 mmHg 65%
12:00 +27°C° 0 mm 3 mps 687 mmHg 63%
13:00 +28°C° 0 mm 4 mps 687 mmHg 61%
14:00 +28°C° 0 mm 4 mps 687 mmHg 61%
15:00 +28°C° 0 mm 4 mps 686 mmHg 62%
16:00 +28°C° 0 mm 4 mps 685 mmHg 62%
17:00 +26°C° 0 mm 3 mps 685 mmHg 69%
18:00 +24°C° 0 mm 3 mps 685 mmHg 76%
19:00 +23°C° 0 mm 2 mps 685 mmHg 83%
20:00 +21°C° 0 mm 2 mps 685 mmHg 86%
21:00 +20°C° 0 mm 2 mps 685 mmHg 89%
22:00 +20°C° 0 mm 2 mps 686 mmHg 93%
23:00 +20°C° 0 mm 2 mps 685 mmHg 94%

10 August, Monday

Time Temperature Precipitation Wind Pressure Humidity
00:00 +19°C° 0 mm 2 mps 685 mmHg 94%
01:00 +19°C° 0 mm 2 mps 685 mmHg 95%
02:00 +19°C° 0 mm 2 mps 685 mmHg 95%
03:00 +18°C° 0 mm 2 mps 684 mmHg 95%
04:00 +18°C° 0 mm 2 mps 684 mmHg 95%
05:00 +18°C° 0 mm 2 mps 685 mmHg 94%
06:00 +19°C° 0 mm 2 mps 685 mmHg 92%
07:00 +19°C° 0 mm 2 mps 685 mmHg 90%
08:00 +21°C° 0 mm 3 mps 686 mmHg 83%
09:00 +24°C° 0 mm 3 mps 687 mmHg 76%
10:00 +25°C° 0 mm 4 mps 687 mmHg 68%
11:00 +26°C° 0 mm 4 mps 687 mmHg 65%
12:00 +27°C° 0 mm 4 mps 686 mmHg 62%
13:00 +28°C° 0 mm 4 mps 686 mmHg 58%
14:00 +28°C° 0 mm 4 mps 685 mmHg 59%
15:00 +28°C° 0 mm 4 mps 685 mmHg 60%
16:00 +28°C° 0 mm 4 mps 684 mmHg 61%
17:00 +26°C° 0 mm 4 mps 684 mmHg 68%
18:00 +25°C° 0 mm 3 mps 684 mmHg 75%
19:00 +23°C° 0 mm 2 mps 684 mmHg 82%
20:00 +22°C° 0 mm 3 mps 684 mmHg 84%
21:00 +21°C° 0 mm 3 mps 685 mmHg 86%
22:00 +21°C° 0 mm 3 mps 685 mmHg 88%
23:00 +21°C° 0 mm 3 mps 685 mmHg 89%
Show more